Tracking 33407 objects as of 5-Mar-2026
HD Live streaming from Space Station
objects crossing your sky now

IRIDIUM 24

Track IRIDIUM 24 now!
10-day predictions
IRIDIUM 24 is classified as:


NORAD ID: 25105
Int'l Code: 1997-082B
Perigee: 750.8 km
Apogee: 764.4 km
Inclination: 86.4 °
Period: 99.8 minutes
Semi major axis: 7128 km
RCS: 4.2836 m2 (large)
Launch date: December 20, 1997
Source: United States (US)
Launch site: AIR FORCE WESTERN TEST RANGE (AFWTR)
Your satellite tracking list
Your tracking list is empty




NASA's NSSDC Master Catalog

Two Line Element Set (TLE):
1 25105U 97082B   26064.17970243  .00000616  00000-0  18018-3 0  9994
2 25105  86.3948 329.5902 0009527 302.2145  57.8131 14.42436013480839
Source of the keplerian elements: AFSPC